Location: Brabourne
(51.1333°N, 1.0000°E)
Time: 22:04:18
(UTC+00:00)

CZ-3B R/B - Pass Details

Date: 20 June 2021
Orbit: 339 x 17331 km, 54.9° (Epoch: 02 August)

Event Time Altitude Azimuth Distance (km) Brightness Sun altitude
Rises 00:34:37 0° 272° (W) 9,554 8.0 -15.0°
Reaches altitude 10° 00:43:58 10° 276° (W) 6,103 7.0 -14.7°
Maximum altitude 00:56:27 63° 358° (N) 1,058 3.5 -14.3°
Drops below altitude 10° 01:00:03 10° 81° (E) 1,845 4.8 -14.2°
Sets 01:01:24 0° 86° (E) 2,473 5.4 -14.1°
